Zurück zum Katalog

STARLINK-31577

AktivKommunikationVLEO
NORAD 59203·PAYLOAD·🇺🇸 United States

Gestartet Mar 11, 2024 von Vandenberg Space Force Base

Loading…

Nächste Überflüge (nächste 24 Stunden)

TLE

AktuellSource: CelesTrak SupGP

Epoche: Sep 15, 2026, 02:35 UTC

1 59203C 24046C   26258.10812500  .00069799  00000+0  20623-2 0  2587
2 59203  53.1591 350.8802 0001144  99.8368 333.4392 15.34355515    19

Verfolge STARLINK-31577 in Echtzeit mit AllMySat

Download on the App Store